Weather History for Frankfort, MI

Change the Weather History Date:

Wednesday, February 13, 2013

  Actual Average (KTVC) Record (KTVC)
Temperature  
Mean Temperature 32 °F 22 °F  
Max Temperature 35 °F 30 °F 50 °F (1984)
Min Temperature 30 °F 15 °F -21 °F (1899)
Degree Days  
Heating Degree Days 33 43  
Month to date heating degree days 566  
Since 1 July heating degree days 4722  
Moisture  
Dew Point 29 °F    
Average Humidity 83    
Maximum Humidity 89    
Minimum Humidity 76    
Precipitation  
Precipitation 0.00 in 0.05 in 0.75 in (1996)
Month to date precipitation 0.72  
Year to date precipitation 3.54  
Sea Level Pressure  
Sea Level Pressure 29.71 in    
Wind  
Wind Speed 8 mph (SSW)    
Max Wind Speed 13 mph    
Max Gust Speed 17 mph    
Visibility 8 miles    
Events      
T = Trace of Precipitation, MM = Missing Value Source: NWS Daily Summary

Daily Weather History Graph

Daily Weather History Graph

Search for Another Location

Airport:

Trip Planner

Search our weather history database for the weather conditions in past years. The results will help you decide how hot, cold, wet, or windy it might be!

Date:

Astronomy

Feb. 13, 2013 Rise Set
Actual Time 7:47 AM EST 6:11 PM EST
Civil Twilight 7:17 AM EST 6:41 PM EST
Nautical Twilight 6:43 AM EST 7:15 PM EST
Astronomical Twilight 6:09 AM EST 7:49 PM EST
Moon 9:05 AM EST (2/13) 10:25 PM EST (2/13)
Length of Visible Light 11h 23m
Length of Day
10h 23m
Waxing Crescent, 13% of the Moon is Illuminated
Feb 13
Waxing Crescent
Feb 17
First Quarter
Feb 25
Full
Mar 4
Last Quarter
Mar 11
New

Hourly Weather History & Observations

Time (EST) Temp. Windchill Dew Point Humidity Pressure Visibility Wind Dir Wind Speed Gust Speed Precip Events Conditions
12:14 AM 30.2 °F 24.3 °F 23.4 °F 76% 29.83 in 10.0 mi WSW 5.8 mph - N/A   Overcast
12:34 AM 30.2 °F 21.9 °F 23.9 °F 77% 29.83 in 10.0 mi WSW 9.2 mph - N/A   Overcast
12:54 AM 30.0 °F 21.7 °F 23.9 °F 78% 29.82 in 10.0 mi WSW 9.2 mph - N/A   Overcast
1:14 AM 30.2 °F 25.4 °F 23.9 °F 77% 29.82 in 10.0 mi SW 4.6 mph - N/A   Overcast
1:34 AM 30.6 °F 23.8 °F 24.3 °F 77% 29.82 in 10.0 mi SSW 6.9 mph - N/A   Overcast
1:54 AM 30.9 °F 22.8 °F 24.6 °F 77% 29.81 in 10.0 mi SW 9.2 mph - N/A   Overcast
2:14 AM 31.5 °F 22.9 °F 24.8 °F 76% 29.80 in 10.0 mi WSW 10.4 mph - N/A   Overcast
2:34 AM 32.0 °F 24.8 °F 25.5 °F 77% 29.80 in 10.0 mi SW 8.1 mph - N/A   Overcast
2:55 AM 32.0 °F 24.8 °F 25.3 °F 76% 29.80 in 10.0 mi WSW 8.1 mph 16.1 mph N/A   Overcast
3:15 AM 32.0 °F 24.8 °F 26.2 °F 79% 29.79 in 10.0 mi SW 8.1 mph - N/A   Overcast
3:35 AM 32.0 °F 24.8 °F 26.2 °F 79% 29.78 in 10.0 mi SW 8.1 mph 17.3 mph N/A   Overcast
3:55 AM 32.2 °F 25.0 °F 26.4 °F 79% 29.78 in 10.0 mi WSW 8.1 mph - N/A   Overcast
4:15 AM 32.5 °F 26.2 °F 27.3 °F 81% 29.77 in 10.0 mi SW 6.9 mph - N/A   Overcast
4:35 AM 32.5 °F 25.5 °F 27.5 °F 82% 29.77 in 10.0 mi SW 8.1 mph - N/A   Overcast
4:55 AM 32.9 °F 26.7 °F 27.5 °F 81% 29.76 in 10.0 mi WSW 6.9 mph - N/A   Overcast
5:15 AM 33.1 °F 24.9 °F 27.5 °F 80% 29.76 in 10.0 mi WSW 10.4 mph - N/A   Overcast
5:35 AM 33.3 °F 25.7 °F 27.9 °F 81% 29.75 in 10.0 mi WSW 9.2 mph - N/A   Overcast
5:56 AM 33.1 °F 27.7 °F 28.0 °F 82% 29.74 in 10.0 mi SW 5.8 mph - N/A   Overcast
6:16 AM 32.9 °F 25.9 °F 28.0 °F 82% 29.73 in 10.0 mi SW 8.1 mph - N/A   Overcast
6:36 AM 32.9 °F 26.7 °F 28.2 °F 83% 29.73 in 10.0 mi SW 6.9 mph - N/A   Overcast
6:56 AM 33.1 °F 25.5 °F 28.2 °F 82% 29.73 in 10.0 mi SW 9.2 mph - N/A   Overcast
7:11 AM 32.9 °F 26.7 °F 27.9 °F 82% 29.72 in 10.0 mi SW 6.9 mph - N/A   Overcast
7:31 AM 32.5 °F 24.8 °F 27.7 °F 82% 29.72 in 10.0 mi SW 9.2 mph - N/A   Overcast
7:51 AM 32.0 °F 25.6 °F 28.0 °F 85% 29.72 in 7.0 mi SSW 6.9 mph - N/A   Overcast
8:11 AM 32.0 °F 28.7 °F 27.9 °F 85% 29.71 in 7.0 mi SSW 3.5 mph - N/A   Mostly Cloudy
8:32 AM 32.0 °F 27.5 °F 28.4 °F 87% 29.72 in 7.0 mi SW 4.6 mph - N/A   Overcast
8:52 AM 32.7 °F 27.3 °F 28.8 °F 85% 29.71 in 7.0 mi SW 5.8 mph - N/A   Overcast
9:12 AM 33.3 °F 26.4 °F 28.4 °F 82% 29.71 in 7.0 mi SSW 8.1 mph - N/A   Overcast
9:32 AM 32.4 °F 26.0 °F 28.8 °F 87% 29.71 in 5.0 mi SW 6.9 mph - N/A   Overcast
9:52 AM 32.9 °F 25.3 °F 28.9 °F 85% 29.71 in 7.0 mi SW 9.2 mph - N/A   Mostly Cloudy
10:12 AM 33.1 °F 24.9 °F 29.3 °F 86% 29.70 in 5.0 mi SSW 10.4 mph - N/A   Mostly Cloudy
10:32 AM 34.7 °F 28.1 °F 28.4 °F 78% 29.70 in 7.0 mi SW 8.1 mph - N/A   Overcast
10:52 AM 34.5 °F 26.7 °F 28.4 °F 78% 29.70 in 7.0 mi SW 10.4 mph 17.3 mph N/A   Overcast
11:13 AM 34.5 °F 25.7 °F 28.4 °F 78% 29.70 in 7.0 mi SW 12.7 mph - N/A   Overcast
11:33 AM 34.9 °F 27.1 °F 28.4 °F 77% 29.70 in 7.0 mi WSW 10.4 mph 16.1 mph N/A   Overcast
11:53 AM 34.7 °F 27.5 °F 28.2 °F 77% 29.70 in 7.0 mi SSW 9.2 mph 17.3 mph N/A   Overcast
12:13 PM 34.7 °F 26.9 °F 28.8 °F 79% 29.69 in 7.0 mi SW 10.4 mph 16.1 mph N/A   Overcast
12:33 PM 34.7 °F 28.1 °F 28.2 °F 77% 29.69 in 7.0 mi SSW 8.1 mph 17.3 mph N/A   Overcast
12:53 PM 34.5 °F 26.7 °F 28.8 °F 79% 29.68 in 7.0 mi SW 10.4 mph - N/A   Overcast
1:13 PM 34.7 °F 27.5 °F 29.3 °F 81% 29.68 in 7.0 mi SSW 9.2 mph - N/A   Mostly Cloudy
1:33 PM 34.7 °F 26.9 °F 29.3 °F 81% 29.68 in 7.0 mi SW 10.4 mph 16.1 mph N/A   Mostly Cloudy
1:53 PM 34.3 °F 25.9 °F 29.8 °F 84% 29.68 in 5.0 mi SSW 11.5 mph 17.3 mph N/A   Overcast
2:14 PM 34.7 °F 26.4 °F 29.3 °F 81% 29.68 in 7.0 mi South 11.5 mph 17.3 mph N/A   Overcast
2:34 PM 34.3 °F 27.0 °F 29.8 °F 84% 29.67 in 5.0 mi SSW 9.2 mph - N/A   Overcast
2:54 PM 34.3 °F 27.0 °F 30.2 °F 85% 29.67 in 5.0 mi SSW 9.2 mph - N/A   Overcast
3:14 PM 34.2 °F 25.2 °F 30.2 °F 85% 29.67 in 5.0 mi SSW 12.7 mph 17.3 mph N/A   Overcast
3:34 PM 34.2 °F 27.5 °F 30.2 °F 85% 29.67 in 5.0 mi SSW 8.1 mph - N/A   Overcast
3:54 PM 34.2 °F 26.8 °F 30.2 °F 85% 29.67 in 5.0 mi SSW 9.2 mph 16.1 mph N/A   Overcast
4:14 PM 34.2 °F 28.2 °F 30.6 °F 87% 29.67 in 5.0 mi South 6.9 mph - N/A   Overcast
4:34 PM 34.2 °F 27.5 °F 30.6 °F 87% 29.67 in 5.0 mi South 8.1 mph 16.1 mph N/A   Overcast
4:55 PM 34.2 °F 30.0 °F 30.2 °F 85% 29.67 in 5.0 mi SSW 4.6 mph - N/A   Overcast
5:15 PM 34.2 °F 28.2 °F 30.4 °F 86% 29.67 in 5.0 mi South 6.9 mph - N/A   Overcast
5:35 PM 34.2 °F 30.0 °F 30.6 °F 87% 29.68 in 5.0 mi South 4.6 mph - N/A   Overcast
5:55 PM 34.2 °F 28.2 °F 30.6 °F 87% 29.68 in 5.0 mi South 6.9 mph - N/A   Overcast
6:15 PM 34.2 °F 26.8 °F 30.6 °F 87% 29.68 in 5.0 mi South 9.2 mph - N/A   Overcast
6:35 PM 34.2 °F 27.5 °F 30.6 °F 87% 29.68 in 7.0 mi South 8.1 mph - N/A   Overcast
6:55 PM 34.2 °F 28.2 °F 30.6 °F 87% 29.68 in 7.0 mi South 6.9 mph - N/A   Overcast
7:15 PM 34.3 °F 30.2 °F 30.6 °F 86% 29.67 in 7.0 mi SSE 4.6 mph - N/A   Overcast
7:35 PM 34.3 °F 29.2 °F 30.4 °F 85% 29.68 in 7.0 mi South 5.8 mph - N/A   Overcast
7:56 PM 34.2 °F 28.2 °F 30.6 °F 87% 29.68 in 7.0 mi South 6.9 mph - N/A   Overcast
8:16 PM 34.2 °F 29.0 °F 30.6 °F 87% 29.68 in 7.0 mi SSW 5.8 mph - N/A   Overcast
8:36 PM 34.2 °F 28.2 °F 30.6 °F 87% 29.68 in 7.0 mi South 6.9 mph - N/A   Overcast
8:56 PM 34.3 °F 29.2 °F 30.6 °F 86% 29.68 in 7.0 mi SSW 5.8 mph - N/A   Overcast
9:11 PM 34.3 °F 30.2 °F 30.6 °F 86% 29.68 in 7.0 mi SSW 4.6 mph - N/A   Overcast
9:31 PM 34.2 °F 27.5 °F 30.6 °F 87% 29.68 in 7.0 mi SSW 8.1 mph - N/A   Overcast
9:51 PM 34.2 °F 29.0 °F 30.6 °F 87% 29.67 in 7.0 mi South 5.8 mph - N/A   Overcast
10:11 PM 34.2 °F 29.0 °F 30.7 °F 87% 29.67 in 7.0 mi SSW 5.8 mph - N/A   Overcast
10:32 PM 34.2 °F 30.0 °F 30.6 °F 87% 29.67 in 7.0 mi SW 4.6 mph - N/A   Overcast
10:52 PM 34.2 °F 28.2 °F 30.2 °F 85% 29.67 in 7.0 mi SSW 6.9 mph - N/A   Overcast
11:12 PM 34.0 °F 31.0 °F 30.6 °F 87% 29.66 in 7.0 mi SW 3.5 mph - N/A   Overcast
11:32 PM 33.8 °F 29.6 °F 30.6 °F 88% 29.66 in 5.0 mi SSW 4.6 mph - N/A   Overcast
11:52 PM 33.8 °F 30.8 °F 30.9 °F 89% 29.66 in 5.0 mi SSW 3.5 mph - N/A   Overcast